sat.trackr.live / text

‹ back to catalog

BEIDOU-3 M8 (C28)

NORAD 43108 · 2018-003B

PAYLOAD ACTIVE UNKNOWN

§ Identity

Operator
Country
PRC
Launch date
2018-01-11
Launch site
XICLF
Launch vehicle
Mass (kg)
RCS (m²)

Purposes: nav

External: N2YO · Heavens-Above · Gunter

§ Orbital elements

Epoch: 2026-05-23T14:17:32.025120Z

Period
773.23 min
Inclination
54.3440°
Eccentricity
0.0002125
Mean motion
1.86230755 rev/d
Perigee alt
21,522.1 km
Apogee alt
21,534.0 km
Semi-major
27,906.2 km
B*
0.0000e+0
RAAN
303.1537°
Arg perigee
272.4030°
Mean anomaly
87.5525°
Rev number
5,690

§ Raw data

BEIDOU-3 M8 (C28)1 43108U 18003B   26143.59550955 -.00000077  00000+0  00000+0 0  99902 43108  54.3440 303.1537 0002125 272.4030  87.5525  1.86230755 56907

JSON: /api/v1/satellites/43108 · /tle

For live sub-satellite position, see the globe view (requires WebGL).

§ Visibility from observer

Set your observer location to see the next 7 days of passes ≥ 10°. The values pass through the URL so the page stays shareable.

No JS? Fill the form by hand. The geolocation button needs JavaScript.